Location: Alexandria
(38.8050°N, 77.0470°W)
Time: 11:12:21

Hubble Space Telescope - Pass Details

Date: 15 March 2018
Orbit: 537 x 541 km, 28.5° (Epoch: 23 March)

Event Time Altitude Azimuth Distance (km) Brightness Sun altitude
Rises 21:28:43 0° 250° (WSW) 2,678 5.0 -26.3°
Reaches altitude 10° 21:31:38 10° 229° (SW) 1,786 3.7 -26.8°
Enters shadow 21:32:32 13° 218° (SW) 1,591 3.3 -27.0°
